1998-067PP (43639 NORAD) Tracking and Keplerian Element Data

This shows tracking and keplerian element data for the satellite.

Feedback or suggestion? Click here.




ElementValue
Catalog43639
Name1998-067PP
Epoch Orbit3574
Epoch Day144.11581147
Epoch Year2019
RAAN115.2526
Inclination51.6385
Eccentricity0.0005929
Argument of Perigee14.0256
Mean Anonmoly346.09
Mean Motion15.58795459
Decay Rate6.42E-05
L11 43639U 98067PP 19144.11581147 .00006420 00000-0 87921-4 0 9995
L22 43639 51.6385 115.2526 0005929 14.0256 346.0900 15.58795459 35749

Live tracking and technical data element details for 1998-067PP (NORAD 43639). 1998-067PP can be tracked NOW for your location showing map with azimuth and elevation plus other details from your city location.

Track the satellite on the map from your city or location and see movement details for azimuth, elevation, latitude, longitude, range, height, and movement on the map or in text.







IsCatalogInMostPopularTable: catalog: 43639, numindb: 143
Update: records affected: 1



GetName: 43639 1998-067PP

Hit Count: updated at: Fri, 24 May 2019 21:03:07 GMT